User: anonymous
Location: Trois-Rivi�res
(46.3500°N, 72.5500°W)
Time: 23:11:48
(UTC-04:00)
Language:

Cosmos 1544 - Orbit

View from above orbital plane
View from above orbital plane
View from above satellite
View from above satellite

Ground track
Ground track

The orbit data is extracted from the following two-line orbital elements,

1 14819U 84027A   14109.19915456  .00010876  00000-0  55486-3 0  8980
2 14819 082.4885 102.0256 0019476 120.4578 009.4384 15.16444776640104
Epoch (UTC): 19 April 2014 04:46:46
Eccentricity: 0.0019476
inclination: 82.4885°
perigee height: 503 km
apogee height: 530 km
right ascension of ascending node: 102.0256°
argument of perigee: 120.4578°
revolutions per day: 15.16444776
mean anomaly at epoch: 9.4384°
orbit number at epoch: 64010

The dashed part of the orbit path shows where the satellite is in the earth's shadow,  

DLR